EDW2M LSZH-KLAS

Flight info

Callsign EDW2M
Flight time N/A
Altitude 34000
Route VEBIT T51 LASUN DCT RLP UL613 SOVAT L613 SANDY UN601 LESTA UP6 RODOL UL28 PENIL DCT REVNU DCT RESNO/M086F350 NATA 56N020W/M086F340 NATA JANJO/N0495F340 DCT DENSO DCT AGLOL DCT MERNU DCT XEXUL/N0486F360 DCT BLUOX DCT RAP J158 DDY J107 BERYL/N0486F370 DCT STEWW CHOWW3
Aircraft A359/H-SDE2E3GHIJ3J4J5LM1ORWXY/LB1D1

Departure

Time 2026-04-26 14:44
Airport Zürich Airport (LSZH)

Arrival

Time N/A
Airport Harry Reid International Airport (KLAS)
Time Latitude Longitude Altitude Speed Heading
2026-04-26 14:12 47.46037 8.55737 1403 ft 0 kts
2026-04-26 14:30 47.46023 8.55735 1411 ft 4 kts
2026-04-26 14:30 47.46014 8.55734 1407 ft 4 kts
2026-04-26 14:31 47.45996 8.55731 1411 ft 4 kts 358°
2026-04-26 14:31 47.45972 8.55736 1411 ft 4 kts 332°
2026-04-26 14:31 47.45954 8.55756 1413 ft 4 kts 300°
2026-04-26 14:31 47.45945 8.55789 1410 ft 4 kts 277°
2026-04-26 14:32 47.45942 8.55827 1410 ft 4 kts 276°
2026-04-26 14:32 47.45941 8.55843 1403 ft 0 kts 276°
2026-04-26 14:36 47.45941 8.55842 1403 ft 1 kts 276°
2026-04-26 14:36 47.45943 8.55814 1411 ft 5 kts 276°
2026-04-26 14:37 47.45949 8.55734 1410 ft 10 kts 276°
2026-04-26 14:37 47.45956 8.55623 1403 ft 11 kts 272°
2026-04-26 14:37 47.45914 8.55558 1411 ft 9 kts 188°
2026-04-26 14:37 47.45878 8.55514 1411 ft 7 kts 253°
2026-04-26 14:38 47.45879 8.55442 1410 ft 8 kts 277°
2026-04-26 14:38 47.45886 8.55351 1404 ft 10 kts 277°
2026-04-26 14:38 47.45895 8.55232 1409 ft 13 kts 276°
2026-04-26 14:38 47.45902 8.55139 1405 ft 14 kts 279°
2026-04-26 14:39 47.45979 8.54968 1407 ft 17 kts 335°
2026-04-26 14:39 47.46090 8.54893 1410 ft 18 kts 335°
2026-04-26 14:39 47.46211 8.54810 1412 ft 20 kts 335°
2026-04-26 14:39 47.46342 8.54722 1410 ft 21 kts 335°
2026-04-26 14:40 47.46478 8.54626 1412 ft 22 kts 334°
2026-04-26 14:40 47.46612 8.54532 1412 ft 21 kts 335°
2026-04-26 14:40 47.46741 8.54446 1412 ft 20 kts 341°
2026-04-26 14:40 47.46866 8.54375 1410 ft 19 kts 335°
2026-04-26 14:41 47.46982 8.54297 1411 ft 18 kts 335°
2026-04-26 14:41 47.47093 8.54220 1411 ft 17 kts 334°
2026-04-26 14:41 47.47199 8.54145 1411 ft 17 kts 334°
2026-04-26 14:41 47.47309 8.54069 1406 ft 18 kts 335°
2026-04-26 14:42 47.47425 8.53989 1408 ft 19 kts 335°
2026-04-26 14:42 47.47548 8.53905 1413 ft 17 kts 335°
2026-04-26 14:42 47.47611 8.53792 1410 ft 14 kts 277°
2026-04-26 14:42 47.47583 8.53665 1412 ft 12 kts 244°
2026-04-26 14:43 47.47528 8.53625 1413 ft 8 kts 162°
2026-04-26 14:43 47.47478 8.53660 1411 ft 8 kts 154°
2026-04-26 14:43 47.47423 8.53697 1407 ft 10 kts 155°
2026-04-26 14:43 47.47332 8.53759 1410 ft 26 kts 155°
2026-04-26 14:44 47.46960 8.54017 1412 ft 91 kts 154°
2026-04-26 14:44 47.46196 8.54542 1414 ft 149 kts 154°
2026-04-26 14:44 47.45103 8.55284 1512 ft 189 kts 153°
2026-04-26 14:44 47.43957 8.56145 2369 ft 181 kts 145°
2026-04-26 14:45 47.43252 8.57616 2890 ft 180 kts 95°
2026-04-26 14:45 47.43397 8.58800 3035 ft 182 kts 59°
2026-04-26 14:45 47.44916 8.59791 3145 ft 205 kts 350°
2026-04-26 14:45 47.46110 8.58522 3309 ft 228 kts 302°
2026-04-26 14:46 47.46445 8.56175 3558 ft 247 kts 264°
2026-04-26 14:46 47.46089 8.53679 4073 ft 248 kts 255°
2026-04-26 14:46 47.45629 8.51148 4458 ft 262 kts 257°
2026-04-26 14:46 47.45171 8.48528 4760 ft 272 kts 254°
2026-04-26 14:47 47.44301 8.45947 5207 ft 281 kts 233°
2026-04-26 14:47 47.43145 8.43649 5809 ft 283 kts 233°
2026-04-26 14:47 47.42002 8.41294 6418 ft 282 kts 235°
2026-04-26 14:47 47.40904 8.38887 6980 ft 283 kts 237°
2026-04-26 14:48 47.39848 8.36447 7602 ft 279 kts 237°
2026-04-26 14:48 47.38840 8.33999 8177 ft 280 kts 241°
2026-04-26 14:48 47.37915 8.31464 8743 ft 281 kts 241°
2026-04-26 14:48 47.36986 8.28925 9342 ft 281 kts 242°
2026-04-26 14:49 47.36060 8.26371 9926 ft 283 kts 242°
2026-04-26 14:49 47.35136 8.23801 10421 ft 287 kts 242°
2026-04-26 14:49 47.34188 8.21143 10637 ft 298 kts 242°
2026-04-26 14:49 47.33202 8.18380 10902 ft 310 kts 243°
2026-04-26 14:50 47.32195 8.15552 11156 ft 321 kts 242°
2026-04-26 14:50 47.31140 8.12596 11417 ft 332 kts 242°
2026-04-26 14:50 47.30049 8.09537 11676 ft 342 kts 243°
2026-04-26 14:50 47.28933 8.06389 11928 ft 352 kts 243°
2026-04-26 14:51 47.28012 8.03011 12135 ft 362 kts 256°
2026-04-26 14:51 47.27784 7.99299 12393 ft 368 kts 275°
2026-04-26 14:51 47.28360 7.95615 12792 ft 371 kts 289°
2026-04-26 14:51 47.29308 7.92063 13255 ft 373 kts 293°
2026-04-26 14:52 47.30398 7.88582 13674 ft 376 kts 295°
2026-04-26 14:52 47.31447 7.85410 14064 ft 378 kts 296°
2026-04-26 14:52 47.32612 7.81919 14445 ft 380 kts 296°
2026-04-26 14:52 47.33765 7.78402 14816 ft 382 kts 295°
2026-04-26 14:53 47.34898 7.74849 15205 ft 384 kts 294°
2026-04-26 14:53 47.36023 7.71259 15617 ft 386 kts 294°
2026-04-26 14:53 47.37139 7.67652 16024 ft 387 kts 294°
2026-04-26 14:53 47.38255 7.64026 16415 ft 390 kts 294°
2026-04-26 14:54 47.39378 7.60366 16814 ft 392 kts 294°
2026-04-26 14:54 47.40507 7.56690 17207 ft 394 kts 294°
2026-04-26 14:54 47.41533 7.52934 17622 ft 395 kts 290°
2026-04-26 14:54 47.42464 7.49116 18033 ft 396 kts 289°
2026-04-26 14:55 47.43351 7.45310 18425 ft 399 kts 288°
2026-04-26 14:55 47.44246 7.41365 18765 ft 400 kts 288°
2026-04-26 14:55 47.45123 7.37443 19121 ft 402 kts 288°
2026-04-26 14:55 47.45985 7.33574 19434 ft 404 kts 288°
2026-04-26 14:56 47.46866 7.29618 19776 ft 406 kts 288°
2026-04-26 14:56 47.47750 7.25651 20115 ft 407 kts 288°
2026-04-26 14:56 47.48641 7.21663 20452 ft 409 kts 288°
2026-04-26 14:56 47.49537 7.17658 20794 ft 411 kts 288°
2026-04-26 14:57 47.50434 7.13642 21117 ft 413 kts 288°
2026-04-26 14:57 47.51336 7.09594 21455 ft 415 kts 288°
2026-04-26 14:57 47.52238 7.05539 21798 ft 417 kts 288°
2026-04-26 14:57 47.53148 7.01438 22154 ft 419 kts 289°
2026-04-26 14:58 47.54058 6.97333 22486 ft 421 kts 289°
2026-04-26 14:58 47.54969 6.93209 22837 ft 423 kts 288°
2026-04-26 14:58 47.55884 6.89047 23172 ft 425 kts 289°
2026-04-26 14:58 47.56802 6.84875 23495 ft 428 kts 289°
2026-04-26 14:59 47.57725 6.80677 23795 ft 430 kts 289°
2026-04-26 14:59 47.58650 6.76461 24096 ft 431 kts 289°
2026-04-26 14:59 47.59264 6.73657 24275 ft 432 kts 289°
2026-04-26 14:59 47.59889 6.70796 24471 ft 434 kts 289°
2026-04-26 15:00 47.61122 6.65146 24855 ft 435 kts 289°
2026-04-26 15:00 47.62054 6.60868 25157 ft 437 kts 289°
2026-04-26 15:00 47.62985 6.56578 25449 ft 438 kts 289°
2026-04-26 15:00 47.63918 6.52272 25746 ft 439 kts 289°
2026-04-26 15:01 47.64853 6.47947 26031 ft 441 kts 289°
2026-04-26 15:01 47.65789 6.43610 26327 ft 443 kts 289°
2026-04-26 15:01 47.66729 6.39248 26609 ft 444 kts 289°
2026-04-26 15:01 47.67668 6.34875 26889 ft 446 kts 289°
2026-04-26 15:02 47.68609 6.30481 27194 ft 447 kts 289°
2026-04-26 15:02 47.69552 6.26074 27465 ft 448 kts 289°
2026-04-26 15:02 47.70497 6.21649 27742 ft 450 kts 289°
2026-04-26 15:02 47.71442 6.17212 28010 ft 452 kts 289°
2026-04-26 15:03 47.72390 6.12755 28290 ft 453 kts 289°
2026-04-26 15:03 47.73340 6.08278 28555 ft 455 kts 289°
2026-04-26 15:03 47.74290 6.03797 28829 ft 456 kts 289°
2026-04-26 15:03 47.75231 5.99342 29061 ft 458 kts 289°
2026-04-26 15:04 47.76195 5.94763 29313 ft 459 kts 289°
2026-04-26 15:04 47.77148 5.90230 29549 ft 460 kts 289°
2026-04-26 15:04 47.78103 5.85673 29765 ft 462 kts 289°
2026-04-26 15:04 47.79058 5.81108 30008 ft 463 kts 289°
2026-04-26 15:05 47.80015 5.76522 30217 ft 465 kts 289°
2026-04-26 15:05 47.80648 5.73485 30340 ft 466 kts 289°
2026-04-26 15:05 47.81932 5.67312 30575 ft 468 kts 289°
2026-04-26 15:05 47.82890 5.62690 30834 ft 467 kts 289°
2026-04-26 15:06 47.83831 5.58143 31101 ft 466 kts 289°
2026-04-26 15:06 47.84782 5.53534 31365 ft 465 kts 289°
2026-04-26 15:06 47.85730 5.48930 31606 ft 464 kts 289°
2026-04-26 15:06 47.86675 5.44330 31858 ft 464 kts 289°
2026-04-26 15:07 47.88551 5.35165 32344 ft 462 kts 289°
2026-04-26 15:07 47.89527 5.30608 32575 ft 460 kts 292°
2026-04-26 15:07 47.90810 5.26263 32800 ft 457 kts 300°
2026-04-26 15:08 47.92482 5.22247 32997 ft 455 kts 308°
2026-04-26 15:08 47.94473 5.18592 33250 ft 453 kts 312°
2026-04-26 15:08 47.96547 5.15065 33507 ft 451 kts 313°
2026-04-26 15:08 47.98651 5.11594 33722 ft 450 kts 314°
2026-04-26 15:09 48.00761 5.08150 33933 ft 449 kts 314°
2026-04-26 15:09 48.02869 5.04713 34135 ft 449 kts 314°
2026-04-26 15:09 48.07100 4.97767 34190 ft 455 kts 313°
2026-04-26 15:10 48.12740 4.88410 34186 ft 455 kts 313°
2026-04-26 15:10 48.32297 4.55636 34197 ft 453 kts 313°
2026-04-26 15:11 48.49076 4.27239 34207 ft 453 kts 312°
2026-04-26 15:11 48.61078 4.06719 34210 ft 452 kts 312°
2026-04-26 15:12 48.65231 3.99586 34213 ft 452 kts 312°
2026-04-26 15:12 48.69987 3.93475 34215 ft 452 kts 328°
2026-04-26 15:12 48.82008 3.88205 34214 ft 458 kts 351°
2026-04-26 15:13 49.07076 3.82280 34222 ft 453 kts 333°
2026-04-26 15:13 49.16116 3.69482 34226 ft 450 kts 299°
2026-04-26 15:13 49.20749 3.51661 34229 ft 452 kts 291°
2026-04-26 15:14 49.26279 3.34627 34235 ft 450 kts 310°
2026-04-26 15:14 49.36240 3.22892 34230 ft 453 kts 326°
2026-04-26 15:14 49.57344 3.01697 34237 ft 454 kts 324°
2026-04-26 15:15 49.78386 2.79940 34259 ft 455 kts 324°
2026-04-26 15:15 49.98002 2.55225 34255 ft 455 kts 317°
2026-04-26 15:16 50.17121 2.29706 34247 ft 456 kts 317°
2026-04-26 15:16 50.36377 2.03749 34256 ft 457 kts 317°
2026-04-26 15:17 50.52525 1.81765 34265 ft 459 kts 316°
2026-04-26 15:17 50.74913 1.50910 34282 ft 461 kts 316°
2026-04-26 15:18 50.94180 1.24005 34309 ft 463 kts 316°
2026-04-26 15:18 51.12398 0.95206 34316 ft 461 kts 307°
2026-04-26 15:19 51.28586 0.63344 34232 ft 462 kts 307°
2026-04-26 15:19 51.46728 0.34194 34292 ft 465 kts 313°
2026-04-26 15:20 51.65189 0.04984 34293 ft 466 kts 313°
2026-04-26 15:20 51.85664 -0.20918 34291 ft 474 kts 326°
2026-04-26 15:21 52.08396 -0.42640 34294 ft 475 kts 326°
2026-04-26 15:21 52.31136 -0.64714 34280 ft 476 kts 326°
2026-04-26 15:22 52.53917 -0.87126 34281 ft 476 kts 326°
2026-04-26 15:22 52.76203 -1.10522 34290 ft 470 kts 315°
2026-04-26 15:23 52.94988 -1.40066 34290 ft 469 kts 313°
2026-04-26 15:23 53.13831 -1.70084 34278 ft 468 kts 312°
2026-04-26 15:24 53.28735 -2.02472 34270 ft 459 kts 293°
2026-04-26 15:24 53.38668 -2.41500 34265 ft 456 kts 285°
2026-04-26 15:25 53.45031 -2.75444 34270 ft 455 kts 284°
2026-04-26 15:25 53.53753 -3.22705 34271 ft 455 kts 284°
2026-04-26 15:26 53.61122 -3.63577 34272 ft 456 kts 283°
2026-04-26 15:26 53.67748 -4.04760 34269 ft 455 kts 281°
2026-04-26 15:27 53.74204 -4.46099 34268 ft 455 kts 281°
2026-04-26 15:27 53.80470 -4.87262 34259 ft 455 kts 280°
2026-04-26 15:28 53.86645 -5.28892 34271 ft 455 kts 280°
2026-04-26 15:28 53.92685 -5.70706 34255 ft 457 kts 279°
2026-04-26 15:29 53.98582 -6.12658 34252 ft 457 kts 279°
2026-04-26 15:30 54.09962 -6.97114 34243 ft 457 kts 278°
2026-04-26 15:30 54.15433 -7.39551 34246 ft 459 kts 278°
2026-04-26 15:31 54.23354 -8.03375 34261 ft 461 kts 278°
2026-04-26 15:32 54.29347 -8.53750 34293 ft 462 kts 279°
2026-04-26 15:32 54.35921 -9.11325 34275 ft 463 kts 279°
2026-04-26 15:33 54.40683 -9.54735 34275 ft 461 kts 279°
2026-04-26 15:33 54.45274 -9.98100 34273 ft 460 kts 279°
2026-04-26 15:34 54.50228 -10.18171 34285 ft 466 kts 308°
2026-04-26 15:34 54.58951 -10.34752 34268 ft 467 kts 310°
2026-04-26 15:34 54.71541 -10.72354 34269 ft 458 kts 281°
2026-04-26 15:35 54.76715 -11.15264 34267 ft 457 kts 281°
2026-04-26 15:35 54.81838 -11.58341 34259 ft 456 kts 281°
2026-04-26 15:36 54.86797 -12.01453 34253 ft 454 kts 281°
2026-04-26 15:36 54.91586 -12.44520 34253 ft 453 kts 281°
2026-04-26 15:37 54.96208 -12.87544 34254 ft 451 kts 281°
2026-04-26 15:37 55.00636 -13.30263 34255 ft 450 kts 281°
2026-04-26 15:38 55.04937 -13.73301 34255 ft 450 kts 281°
2026-04-26 15:38 55.09075 -14.16312 34250 ft 449 kts 281°
2026-04-26 15:39 55.13050 -14.59300 34244 ft 447 kts 281°
2026-04-26 15:39 55.15650 -14.87994 34418 ft 443 kts 284°
2026-04-26 15:40 55.22599 -15.21225 35242 ft 442 kts 292°
2026-04-26 15:40 55.27059 -15.41269 35242 ft 441 kts 292°
2026-04-26 15:40 55.35811 -15.81334 35235 ft 438 kts 292°
2026-04-26 15:41 55.44383 -16.21329 35229 ft 436 kts 292°
2026-04-26 15:41 55.52782 -16.61300 35225 ft 434 kts 292°
2026-04-26 15:42 55.61016 -17.01271 35220 ft 431 kts 291°
2026-04-26 15:42 55.69033 -17.40973 35211 ft 430 kts 291°
2026-04-26 15:43 55.76954 -17.81006 35214 ft 429 kts 291°
2026-04-26 15:44 55.88577 -18.41288 35202 ft 429 kts 290°
2026-04-26 15:44 55.99917 -19.01992 35197 ft 431 kts 289°
2026-04-26 15:45 56.09790 -19.56506 35190 ft 429 kts 288°
2026-04-26 15:46 56.19731 -20.17798 35182 ft 424 kts 284°
2026-04-26 15:46 56.24497 -20.52033 35177 ft 423 kts 284°
2026-04-26 15:47 56.33757 -21.20441 35170 ft 422 kts 283°
2026-04-26 15:48 56.39129 -21.61635 35161 ft 422 kts 283°
2026-04-26 15:48 56.44370 -22.02972 35155 ft 423 kts 282°
2026-04-26 15:49 56.49493 -22.44601 35142 ft 424 kts 281°
2026-04-26 15:49 56.54489 -22.86445 35129 ft 425 kts 281°
2026-04-26 15:50 56.59323 -23.28214 35120 ft 426 kts 280°
2026-04-26 15:50 56.64055 -23.70438 35106 ft 427 kts 279°
2026-04-26 15:51 56.68651 -24.12834 35089 ft 427 kts 279°
2026-04-26 15:51 56.73113 -24.55436 35072 ft 429 kts 279°
2026-04-26 15:52 56.77446 -24.98294 35052 ft 430 kts 278°
2026-04-26 15:52 56.81643 -25.41366 35033 ft 432 kts 277°
2026-04-26 15:53 56.85706 -25.84702 35013 ft 433 kts 277°
2026-04-26 15:53 56.89637 -26.28335 34991 ft 434 kts 276°
2026-04-26 15:54 56.93388 -26.71727 34974 ft 434 kts 275°
2026-04-26 15:54 56.97012 -27.15493 34952 ft 433 kts 275°
2026-04-26 15:55 57.00469 -27.59178 34932 ft 432 kts 274°
2026-04-26 15:55 57.03772 -28.02859 34911 ft 432 kts 273°
2026-04-26 15:56 57.06929 -28.46693 34892 ft 432 kts 272°
2026-04-26 15:56 57.09932 -28.90598 34875 ft 433 kts 272°
2026-04-26 15:57 57.12785 -29.34623 34858 ft 433 kts 271°
2026-04-26 15:57 57.15482 -29.78668 34841 ft 431 kts 270°
2026-04-26 15:58 57.17529 -30.22169 34831 ft 426 kts 268°
2026-04-26 15:58 57.19087 -30.65680 34814 ft 425 kts 267°
2026-04-26 15:59 57.20521 -31.09241 34795 ft 424 kts 266°
2026-04-26 15:59 57.21798 -31.52635 34783 ft 423 kts 265°
2026-04-26 16:00 57.22925 -31.96045 34772 ft 423 kts 264°
2026-04-26 16:00 57.23904 -32.39553 34758 ft 424 kts 263°
2026-04-26 16:01 57.24728 -32.82855 34746 ft 424 kts 262°
2026-04-26 16:01 57.25407 -33.26830 34725 ft 432 kts 262°
2026-04-26 16:02 57.25945 -33.71729 34718 ft 442 kts 262°
2026-04-26 16:02 57.26420 -34.32337 34699 ft 456 kts 263°
2026-04-26 16:03 57.26553 -34.63801 34693 ft 460 kts 263°
2026-04-26 16:03 57.26602 -35.11030 34673 ft 464 kts 264°
2026-04-26 16:04 57.26471 -35.59087 34659 ft 471 kts 263°
2026-04-26 16:04 57.26151 -36.07810 34645 ft 478 kts 263°
2026-04-26 16:05 57.25903 -36.33845 34631 ft 481 kts 263°
2026-04-26 16:05 57.25617 -36.58561 34626 ft 481 kts 263°
2026-04-26 16:06 57.25283 -36.83227 34620 ft 481 kts 263°
2026-04-26 16:06 57.24900 -37.07954 34610 ft 481 kts 263°
2026-04-26 16:07 57.24471 -37.32503 34590 ft 482 kts 263°
2026-04-26 16:07 57.23990 -37.57260 34593 ft 482 kts 263°
2026-04-26 16:08 57.23459 -37.82076 34584 ft 484 kts 264°
2026-04-26 16:08 57.22877 -38.06980 34575 ft 486 kts 264°
2026-04-26 16:09 57.22244 -38.31940 34573 ft 488 kts 264°
2026-04-26 16:09 57.21559 -38.56988 34563 ft 489 kts 264°
2026-04-26 16:10 57.20822 -38.82090 34556 ft 490 kts 264°
2026-04-26 16:10 57.20039 -39.07041 34549 ft 492 kts 263°
2026-04-26 16:11 57.19198 -39.32290 34538 ft 493 kts 263°
2026-04-26 16:11 57.18301 -39.57595 34533 ft 495 kts 263°
2026-04-26 16:12 57.17352 -39.82963 34525 ft 496 kts 263°
2026-04-26 16:12 57.15539 -40.21041 34516 ft 498 kts 261°
2026-04-26 16:13 57.13935 -40.46461 34510 ft 501 kts 262°
2026-04-26 16:13 57.12339 -40.72030 34502 ft 503 kts 262°
2026-04-26 16:14 57.10689 -40.97672 34493 ft 506 kts 262°
2026-04-26 16:15 57.08115 -41.36040 34486 ft 506 kts 262°
2026-04-26 16:15 57.06325 -41.61721 34476 ft 507 kts 262°
2026-04-26 16:16 57.03540 -42.00206 34465 ft 506 kts 262°
2026-04-26 16:16 57.01619 -42.25826 34468 ft 506 kts 262°
2026-04-26 16:17 56.99649 -42.51368 34467 ft 505 kts 262°
2026-04-26 16:17 56.97629 -42.76874 34462 ft 506 kts 262°
2026-04-26 16:18 56.94492 -43.15170 34462 ft 507 kts 262°
2026-04-26 16:19 56.91243 -43.53360 34464 ft 508 kts 262°
2026-04-26 16:20 56.87850 -43.91799 34474 ft 508 kts 262°
2026-04-26 16:20 56.84371 -44.29802 34480 ft 507 kts 262°
2026-04-26 16:21 56.81976 -44.55223 34486 ft 507 kts 262°
2026-04-26 16:21 56.79531 -44.80600 34500 ft 507 kts 262°
2026-04-26 16:22 56.77035 -45.05943 34502 ft 507 kts 262°
2026-04-26 16:22 56.74487 -45.31244 34509 ft 508 kts 262°